Terminal Aerodrome Forecast
Issued by NWS

Home | Current Version | Previous Version | Text Only | Print | Product List | Glossary On
Versions: 1 2 3 4 5 6 7 8 9 10 11 12 13 14 15 16 17 18 19 20 21 22
000
FTUS43 KGRB 011100
TAFMTW
TAF
KMTW 011130Z 0112/0212 24006KT P6SM -SN BKN030
      TEMPO 0112/0113 BKN018
     FM011500 24012KT P6SM -SN BKN030
     FM020200 28012G20KT P6SM SCT025
     FM020900 29008KT P6SM SKC=

USA.gov is the U.S. government's official web portal to all federal, state and local government web resources and services.